Weather in Budva

Montenegro     42°17′20″N   18°50′38″E
temp.,
°C
wind,
m/s
gust,
m/s
humid.,
%
clouds,
%
prec.,
mm/h
press.,
hPa
HPBL,
m
22 september, wed
wed2223:00+21nne22630 0.0 1020288
02:00+20e44660 0.0 1020224
05:00+19ene54635 0.0 1019271
08:00+19ene446212 0.1 1018314
11:00+20ssw225857 0.0 1018637
14:00+20sw4368100 0.3 1017756
17:00+20wnw2257100 0.6 1017575
20:00+20ene5551100 0.6 1017763
23 september, thu
thu2323:00+17ne765218 0.0 1018348
02:00+17ne435141 0.0 1019423
05:00+16ne54565 0.0 1019404
08:00+17ne544812 0.0 1019548
11:00+19nne12360 0.0 1020893
14:00+19w54464 0.0 1019647
17:00+19wnw65515 0.0 1019682
20:00+19nw56605 0.0 1019566
24 september, fri
fri2423:00+19n23525 0.0 1019324
02:00+19e32505 0.0 1019216
05:00+18ene32485 0.0 1019234
08:00+18ene32500 0.0 1020275
11:00+19s32586 0.0 1020478
14:00+19ssw32635 0.0 1019495
17:00+20w22595 0.0 1019460
20:00+20n11580 0.0 1019307
25 september, sat
sat2523:00+20ene21610 0.0 1020253
02:00+19e11623 0.0 1020257
05:00+19ene22620 0.0 1020236
08:00+20e21560 0.0 1021221
11:00+21ssw22560 0.0 1022267
14:00+21wsw32620 0.0 1021358
17:00+22wnw33620 0.0 1020308
20:00+21nnw22620 0.0 1020149
26 september, sun
sun2623:00+22ne21585 0.0 1021119
02:00+22e22535 0.0 1021182
05:00+21ene224937 0.0 1021149
08:00+22e2247100 0.0 1021151
11:00+22ssw2253100 0.0 1021221
14:00+22wsw22645 0.0 1020253
17:00+23wnw22620 0.0 1018158
20:00+23nnw34630 0.0 1018108